Theta_e
293 292 291 291 290 290 290 289 289 285 283 285 286 286 287 289 289 291 290 290 292 294 294 294 295 295 295 296 297 298 298 299 300 301 301 302 302 304
291 290 289 288 288 289 288 287 287 285 283 284 285 286 287 287 288 290 289 290 291 292 293 293 293 293 294 295 296 296 297 298 298 300 300 301 301 302
290 288 287 288 287 287 288 287 286 286 284 285 285 285 285 287 288 288 288 288 289 290 291 292 292 293 293 294 295 295 296 296 297 298 299 300 301 301
288 288 287 289 287 287 287 286 286 286 284 281 284 284 285 286 286 286 286 287 288 289 290 291 292 292 292 293 293 294 294 295 295 296 296 297 298 299
289 289 288 289 287 287 286 285 285 285 284 282 283 285 285 285 285 286 286 286 286 288 289 289 290 291 291 292 292 293 293 293 293 294 294 295 295 296
289 288 287 286 285 285 285 285 285 283 283 283 283 284 284 286 284 283 283 285 284 286 287 288 289 289 290 290 291 290 290 291 292 292 293 293 293 294
285 285 285 286 287 287 286 286 285 284 284 284 283 283 283 283 283 284 282 283 284 285 285 285 285 285 286 287 287 288 288 289 291 292 292 293 293 294
284 284 284 286 286 286 286 287 287 285 284 284 283 282 283 283 283 282 282 280 278 286 283 283 285 284 285 286 287 288 289 290 291 291 292 292 292 293
283 283 283 284 284 284 285 286 286 287 288 286 283 283 282 283 283 281 282 281 280 284 283 281 284 282 284 284 287 288 288 289 290 290 291 291 291 292
282 282 282 283 283 285 284 285 285 285 285 285 285 284 285 285 284 284 283 282 282 283 283 277 283 282 284 284 286 287 288 289 289 290 290 290 291 291
282 282 284 283 284 286 285 283 283 283 284 285 286 286 286 286 285 283 281 279 277 279 282 279 280 281 282 282 284 286 287 287 288 288 289 289 289 290
282 282 283 284 286 286 285 282 280 281 282 282 282 282 282 281 283 282 281 277 276 276 282 278 279 279 277 282 283 283 283 285 285 286 287 287 288 286
281 281 282 284 285 285 284 281 281 284 281 279 279 280 280 281 281 281 281 279 276 276 281 280 279 278 277 277 280 282 282 282 283 283 284 285 285 285
281 282 282 283 283 282 282 283 284 282 279 278 278 279 279 279 280 280 280 280 280 278 280 279 276 276 275 275 275 280 282 283 283 282 283 283 284 285
282 282 282 281 280 280 281 282 281 278 278 277 277 278 278 279 278 278 279 279 278 278 279 279 277 277 276 275 275 277 278 281 282 281 282 281 282 282
280 279 279 279 279 279 278 278 278 278 278 278 277 277 278 278 278 279 277 278 276 278 281 280 278 277 276 277 277 276 279 277 281 282 282 282 283 283
278 276 276 276 276 276 277 277 277 277 277 277 276 276 276 277 277 278 277 276 275 276 277 280 281 280 279 278 276 278 279 279 282 281 281 280 282 283
276 274 274 275 275 275 275 275 276 276 276 275 275 275 274 275 275 277 279 277 276 276 277 279 280 279 280 282 282 278 280 280 282 283 282 279 280 285
274 274 274 274 274 275 275 275 274 275 274 274 274 274 274 274 276 277 277 277 277 278 279 280 280 280 277 276 282 287 282 283 283 282 283 283 282 284
274 273 274 274 274 274 274 274 274 274 274 274 274 274 275 275 276 277 278 278 278 280 280 282 281 280 279 278 280 282 284 282 283 282 283 285 285 287
273 274 274 274 274 274 274 274 273 273 274 275 274 273 274 275 276 277 278 280 281 280 279 280 282 285 283 283 280 280 283 285 285 283 283 283 282 283
273 273 274 274 274 274 273 273 273 273 273 274 274 274 275 276 277 277 278 279 279 280 280 282 283 283 282 280 279 279 281 283 285 286 286 286 283 281
273 274 274 274 273 273 273 273 272 273 273 275 275 275 275 276 278 278 279 280 280 280 282 281 282 283 282 281 280 280 280 281 282 283 284 288 289 289
Wind_Speed
7 7 6 4 3 3 4 2 3 5 3 3 0 2 2 4 5 7 6 8 13 16 19 21 22 21 22 22 23 23 24 24 24 25 25 25 26 28
6 9 7 4 5 5 4 4 5 3 1 1 1 0 2 5 7 9 8 11 13 17 20 21 21 21 21 22 23 23 24 24 24 25 26 26 25 27
8 10 9 8 5 5 5 4 4 2 3 2 4 4 5 6 7 7 6 7 8 16 20 20 20 20 21 22 22 23 23 24 24 25 25 25 25 25
11 9 9 7 7 5 3 2 1 2 2 6 2 3 5 6 7 8 7 7 10 16 20 20 20 20 20 20 21 22 22 22 24 25 26 26 27 27
11 9 8 7 5 2 0 0 1 3 5 3 4 3 4 4 6 7 8 9 9 17 18 19 19 19 19 20 22 23 23 25 26 26 27 27 28 28
9 9 7 4 5 2 2 3 2 4 3 5 5 6 4 4 4 7 8 8 10 11 14 15 17 18 22 23 24 24 24 24 25 25 26 26 27 28
8 6 5 4 6 5 4 4 5 5 4 4 6 5 6 6 8 8 9 9 10 11 9 8 9 10 12 17 18 22 22 23 24 25 26 26 27 27
7 4 3 5 3 4 2 4 4 4 5 3 5 7 9 8 8 8 9 9 9 6 7 11 11 12 12 10 19 23 26 26 26 26 26 26 26 26
6 5 5 3 2 3 5 6 6 8 9 8 8 9 10 10 8 8 10 10 11 12 12 13 11 13 11 11 21 25 26 26 26 24 24 24 24 25
6 4 3 2 3 5 4 4 4 4 5 5 8 10 9 9 8 8 12 12 11 12 10 10 10 11 11 11 22 26 25 23 23 23 23 24 25 26
4 3 2 3 5 7 3 2 5 6 7 11 11 12 13 16 12 8 7 8 9 10 9 10 8 10 11 12 10 17 20 21 24 26 26 26 26 27
2 3 5 6 8 8 4 2 4 7 7 6 6 9 9 9 11 6 5 7 7 8 0 5 9 9 7 7 7 10 11 19 24 25 25 26 26 12
2 2 2 7 9 9 10 3 6 7 2 5 6 6 6 6 5 5 6 6 7 9 11 7 7 9 7 10 9 9 11 13 12 13 20 22 22 18
3 2 3 8 8 8 6 8 9 7 4 5 5 6 6 7 6 7 9 9 9 14 15 10 7 8 10 11 12 10 10 11 11 10 9 14 20 21
3 4 8 8 7 5 7 7 6 3 4 4 6 7 6 7 10 9 9 10 10 12 11 12 10 12 9 11 12 15 13 9 11 11 9 10 10 10
3 4 6 5 5 5 4 4 3 4 4 5 6 7 7 6 8 7 8 8 9 9 7 10 11 11 11 11 11 15 13 8 9 10 10 11 11 11
1 1 2 3 4 3 3 3 3 4 4 5 6 7 7 7 8 7 7 8 7 9 12 9 9 12 12 14 13 13 13 13 11 12 12 12 11 11
1 2 3 3 4 5 5 5 4 5 5 6 6 6 7 8 9 8 7 8 9 9 11 11 10 11 8 10 21 14 11 12 12 12 11 11 12 10
2 2 3 4 5 5 5 5 6 6 6 6 6 6 7 8 10 8 8 8 9 10 10 10 9 9 11 13 9 13 12 12 12 11 11 10 13 12
2 3 4 5 5 6 6 6 7 7 6 6 7 7 8 8 8 8 8 10 10 11 11 10 9 8 10 13 15 16 13 10 11 12 11 10 12 24
4 4 5 5 5 6 6 7 7 7 7 7 7 7 8 7 8 9 10 17 18 10 12 12 11 22 11 11 10 12 11 11 14 13 12 11 11 9
4 5 6 6 6 6 7 7 8 8 8 7 7 7 8 7 8 10 10 11 11 11 12 12 11 9 9 10 13 16 13 12 11 19 20 20 8 7
5 6 6 7 7 7 7 7 8 8 8 8 7 8 8 8 9 10 11 11 11 11 12 12 11 9 9 10 14 12 18 16 11 12 12 15 20 23
Wind_Direction
142 133 122 126 88 86 94 78 123 179 184 139 181 173 189 252 293 305 291 287 300 304 305 303 301 296 293 290 288 287 286 283 282 281 279 280 270 272
119 119 107 99 89 78 81 81 76 68 109 115 88 50 235 249 266 280 291 293 291 298 301 299 297 295 291 287 285 286 286 285 285 283 286 283 282 278
117 117 110 109 100 98 83 77 81 85 184 212 212 206 239 267 279 284 290 293 290 292 297 299 297 292 292 291 290 288 286 287 285 283 282 283 283 281
98 100 99 96 92 94 97 103 195 146 234 246 222 222 243 276 284 292 293 292 295 293 296 297 297 297 294 293 290 286 283 283 284 286 283 281 277 276
98 101 104 109 107 89 88 156 219 218 215 239 261 245 261 272 289 287 290 293 288 291 294 295 294 296 294 292 290 288 290 289 286 284 282 279 278 274
92 94 89 92 89 103 237 252 254 251 237 251 273 273 275 280 265 293 300 297 299 296 292 288 288 292 290 292 292 288 287 286 283 280 279 276 274 273
84 79 93 152 174 184 201 207 224 242 256 264 270 276 282 287 296 311 300 304 300 285 284 291 292 289 287 289 284 284 282 279 277 277 276 276 274 273
107 121 154 137 166 221 300 308 274 255 259 264 277 281 294 300 305 301 300 302 308 284 290 295 292 290 287 284 285 284 282 284 286 284 280 278 276 275
130 132 134 143 95 333 336 323 315 305 299 291 291 294 299 299 297 289 289 291 288 285 295 294 291 284 285 280 279 281 287 287 286 284 282 281 280 276
102 101 81 36 338 306 279 281 300 286 289 286 281 286 285 279 272 270 289 295 287 285 294 279 291 285 292 281 277 280 282 284 286 287 284 281 282 284
103 72 23 345 309 307 23 340 310 299 293 292 294 295 299 299 297 295 288 297 300 293 297 278 282 295 294 282 273 268 274 281 286 288 286 285 284 282
59 33 354 335 320 331 320 295 283 296 299 300 297 300 302 297 301 287 282 283 294 299 68 279 297 316 305 284 282 288 285 282 285 284 283 285 285 281
17 337 329 323 336 327 318 316 292 302 317 312 306 302 303 301 304 300 285 266 270 262 273 288 289 295 274 293 291 286 287 285 283 283 284 284 282 277
17 347 322 331 332 330 332 302 313 343 319 310 308 308 312 309 306 297 286 269 254 254 277 275 268 274 276 284 287 291 286 286 283 279 278 278 279 276
340 356 347 347 344 336 321 331 343 319 310 305 303 298 297 293 295 292 284 276 261 260 259 259 250 267 261 267 275 288 292 291 288 280 275 272 274 275
55 358 351 352 343 338 337 338 316 301 294 298 297 297 294 293 298 302 305 314 306 296 256 242 244 245 261 261 266 274 282 277 290 280 279 275 274 269
139 358 350 347 337 332 331 322 312 306 305 307 302 301 301 304 301 306 294 299 288 297 304 298 276 257 252 259 269 267 275 277 271 280 284 280 273 267
62 342 342 329 320 321 326 322 310 310 308 310 303 295 296 300 301 299 296 295 290 290 288 291 300 304 281 247 230 269 270 272 280 277 270 271 278 269
14 347 324 319 315 311 306 304 299 303 303 293 292 293 291 290 298 297 298 295 295 294 287 288 287 292 297 297 291 255 281 290 294 288 282 275 280 284
341 322 314 310 307 304 303 300 300 299 300 297 294 290 286 289 292 290 291 290 291 297 298 296 291 289 291 296 305 304 269 272 283 285 286 281 272 275
316 306 298 296 295 294 293 292 288 289 289 290 293 286 286 284 284 288 289 298 303 297 295 296 296 300 291 288 286 295 300 268 264 276 289 288 285 274
298 299 304 300 299 294 292 290 291 292 290 286 281 282 284 281 284 290 289 292 294 293 287 290 295 297 289 287 293 298 296 304 290 279 269 262 266 285
298 299 302 299 295 289 286 287 284 286 282 279 279 283 283 285 286 283 285 284 283 285 291 299 301 301 291 295 294 294 294 298 302 306 293 275 271 262